Location: Herreth
(50.1267°N, 10.9312°E)
Time: 19:49:28
(UTC+00:00)

Daily predictions for brighter satellites

Satellite Brightness Start Highest point End
(mag) Time Altitude Azimuth Time Altitude Azimuth Time Altitude Azimuth
ATLAS 2AS CENTAUR R/B 3.9 19:58:34 10° NW 20:05:54 42° NNE 20:12:42 10° E
Cosmos 1844 3.8 20:03:42 10° NNW 20:09:32 87° WSW 20:15:15 10° SSE
COSMOS 2428 3.6 20:05:36 10° SSE 20:10:24 29° ESE 20:15:13 10° NE
Cosmos 2181 Rocket 4.4 20:04:16 10° N 20:10:27 50° ENE 20:16:30 10° SSE
Cosmos 1703 3.3 20:07:44 10° S 20:11:35 65° E 20:15:26 10° NNE
Cosmos 2322 4.0 20:07:33 10° S 20:13:01 48° ESE 20:18:30 10° NE
Cosmos 1745 Rocket 4.1 20:07:08 10° S 20:13:20 86° W 20:19:41 10° N
MetOp-B 4.3 20:08:47 10° S 20:14:09 77° WSW 20:19:33 10° NNW
Cosmos 2084 3.8 20:10:16 10° NW 20:14:43 63° NE 20:19:07 10° SE
Cosmos 1953 Rocket 3.9 20:14:31 10° SSE 20:18:40 48° E 20:22:50 10° NNE
Cosmos 773 Rocket 4.3 20:14:10 10° S 20:19:15 50° ESE 20:24:22 10° NNE
ATLAS CENTAUR R/B 1.3 20:17:22 10° NW 20:21:04 63° NE 20:24:41 10° SE
Cosmos 2237 Rocket 3.9 20:18:36 10° SE 20:21:42 15° E 20:24:50 10° ENE
Cosmos 2219 Rocket 2.7 20:17:00 10° S 20:22:07 39° ESE 20:27:18 10° NE
ERS-1 Rocket 3.2 20:17:19 10° SSE 20:22:16 59° ENE 20:27:14 10° N
USA 215 3.8 20:17:03 10° ENE 20:22:54 33° SE 20:28:41 10° SSW
Gblst 52 Del rocket 4.3 20:17:27 10° WNW 20:23:03 82° SSW 20:29:16 10° ESE
Cosmos 1818 3.6 20:18:13 10° SW 20:23:39 87° SE 20:29:09 10° NE
Cosmos 2360 Rocket 2.3 20:18:58 10° SSW 20:24:37 84° WNW 20:30:21 10° NNE
Cosmos 2333 4.3 20:19:21 10° S 20:24:51 57° ESE 20:30:27 10° NE
SPOT 5 3.2 20:23:29 10° SSE 20:28:22 57° ENE 20:33:02 10° N
Atlas Centaur 2 4.3 20:29:46 10° SSW 20:31:51 12° S 20:34:02 10° SSE
Landsat 7 4.1 20:27:09 10° S 20:31:54 72° WSW 20:36:41 10° NNW
Cosmos 1825 Rocket 3.7 20:29:15 10° S 20:33:41 84° W 20:38:12 10° N
CZ-2C R/B 4.5 20:29:26 10° N 20:34:18 34° WNW 20:39:03 10° SW
Cosmos 2333 Rocket 2.4 20:30:25 10° S 20:35:54 52° ESE 20:41:28 10° NE
GEOS 3 Rocket 3.8 20:33:25 10° NE 20:38:47 60° SE 20:44:05 10° SSW
SL-16 R/B 4.1 20:40:10 10° WSW 20:45:18 34° NW 20:50:28 10° NNE
Spot 2 Rocket 4.2 20:40:37 10° S 20:45:34 53° W 20:50:35 10° NNW
Cosmos 1315 Rocket 2.9 20:41:59 10° N 20:46:06 72° ENE 20:49:46 13° SSE
IGS 5A 4.3 20:43:23 10° S 20:47:23 47° W 20:51:26 10° NNW
ATLAS 5 CENTAUR R/B 2.0 20:48:59 10° SW 20:53:11 67° NW 20:58:00 10° NE
Cosmos 1892 4.1 20:51:28 14° SE 20:53:41 23° E 20:56:42 10° NE
CARTOSAT-1 3.7 20:49:41 11° S 20:53:51 78° WSW 20:58:12 10° NNW
Cosmos 2278 Rocket 2.5 20:48:15 10° NNW 20:53:54 62° ENE 20:58:50 14° SE
USA 81 4.0 20:49:31 10° S 20:54:47 80° E 21:00:05 10° N
Cosmos 1844 Rocket 3.9 20:50:50 10° NW 20:55:47 34° WSW 21:00:44 10° S
Cosmos 1943 Rocket 4.4 20:52:47 10° N 20:56:34 18° NNE 21:00:20 10° ENE
USA 267 3.4 20:50:26 10° ESE 20:56:58 76° NNE 21:03:33 10° WNW
Cosmos 1709 Rocket 4.3 20:52:02 10° SSW 20:58:19 73° W 21:04:44 10° N
Meteor 1-11 4.4 20:59:05 10° SSW 21:04:43 79° WNW 21:10:28 10° N
Cosmos 1408 4.3 21:03:38 14° ESE 21:05:13 18° E 21:07:42 10° NE
SPOT 1/Viking Rocket 4.4 21:01:22 10° S 21:06:18 46° W 21:11:17 10° NNW
SL-16 R/B 4.1 21:04:44 10° ESE 21:06:52 13° E 21:09:12 10° ENE
Cosmos 2221 2.5 21:07:34 10° N 21:11:58 76° E 21:15:14 17° SSE
Cosmos 2184 Rocket 4.1 21:08:51 12° S 21:14:34 64° E 21:20:49 10° NNE
Lacrosse 5 rocket 3.2 21:11:39 10° WNW 21:15:24 31° N 21:18:58 10° ENE
Resurs 01 Rocket 4.3 21:14:10 10° WSW 21:16:10 13° W 21:18:11 10° WNW
In-Cosmos 22 Rocket 4.3 21:14:18 15° SSE 21:18:28 52° E 21:23:37 10° NNE
Terra 2.0 21:14:58 15° S 21:18:55 72° WSW 21:23:42 10° NNW
Cosmos 923 Rocket 4.3 21:16:24 14° S 21:20:46 49° ESE 21:25:52 10° NNE
TSX-5 3.7 21:24:04 10° NW 21:27:31 76° WSW 21:30:05 22° SSE
NOSS 3-4 (A) 3.9 21:22:45 10° NW 21:29:39 84° NE 21:36:03 16° SE
NOSS 3-4 (C) 3.9 21:22:51 10° NW 21:29:45 83° NE 21:36:11 16° SE
Cosmos 2058 3.1 21:27:38 20° SSE 21:30:20 57° E 21:34:25 10° NNE
Cosmos 1624 Rocket 4.4 21:32:22 10° NNW 21:37:34 57° ENE 21:41:12 19° SE
NOSS 3-3 (A) 4.1 21:34:31 10° SW 21:40:29 82° NW 21:47:18 10° NE
NOSS 3-3 (C) 4.1 21:34:36 10° SW 21:40:35 82° NW 21:47:25 10° NE
Cosmos 1825 3.2 21:39:57 23° SE 21:41:29 31° E 21:44:53 10° NNE
Cosmos 2369 Rocket 4.1 21:40:42 10° NNW 21:45:09 23° NE 21:49:35 10° E
JB-3 4.2 21:41:32 10° NNE 21:45:25 86° WNW 21:48:03 19° SSW
Cosmos 1980 3.7 21:41:49 13° SSW 21:46:51 66° ESE 21:52:28 10° NNE
Aureole 2 Rocket 3.3 21:45:04 10° N 21:47:38 31° ENE 21:48:50 22° ESE
Meteor 2-17 Rocket 4.4 21:43:29 14° S 21:48:45 88° W 21:54:50 10° N
Cosmos 1076 Rocket 3.4 21:47:33 21° S 21:50:20 82° E 21:54:39 10° NNE
Nadezhda 3 Rocket 4.0 21:44:20 10° N 21:50:46 90° ESE 21:55:18 20° S
COSMOS 2455 3.9 21:46:52 10° NNW 21:52:33 40° NE 21:58:12 10° ESE
COSMOS 2428 3.4 21:48:48 10° SW 21:54:22 56° NW 21:59:59 10° NNE
Cosmos 2154 Rocket 4.0 21:49:47 18° S 21:54:36 81° E 22:00:51 10° NNE
ATLAS 2AS CENTAUR R/B 2.8 21:49:56 10° NW 21:57:36 79° SW 22:02:39 21° SSE
Cosmos 2151 3.5 21:55:43 26° SSE 21:57:43 44° E 22:01:48 10° NNE
Thor Agena Rocket 3.7 21:53:25 10° NNE 21:58:29 57° ESE 22:01:29 23° S
Cosmos 2341 Rocket 4.3 21:55:15 21° SSE 21:59:13 52° E 22:05:13 10° NNE
DELTA 2 R/B (1) 4.5 21:54:51 10° SW 21:59:25 26° S 22:01:15 22° SE
ATLAS CENTAUR R/B 3.2 21:57:16 10° WNW 21:59:30 15° WSW 22:00:56 13° SW
Cosmos 2074 Rocket 4.4 21:54:31 10° SSW 22:00:40 62° WNW 22:06:51 10° N
BREEZE-M DEB (TANK) 1.5 21:58:07 10° W 22:02:26 65° SSW 22:03:23 34° SE
Genesis I 3.2 22:00:58 23° SSW 22:03:12 58° SE 22:07:03 10° NE
Cosmos 2237 Rocket 2.2 21:59:39 13° SSW 22:04:52 83° ESE 22:10:37 10° NNE
Cosmos 1371 Rocket 4.0 22:00:25 10° NNW 22:05:42 80° WSW 22:08:51 25° SSE
Cosmos 2219 Rocket 3.4 22:00:44 10° WSW 22:06:03 43° NW 22:11:25 10° NNE
USA 215 3.2 21:59:50 10° ENE 22:06:26 89° SSE 22:13:00 10° WSW
Spot 4 3.8 22:06:50 26° SSE 22:09:35 88° WSW 22:14:24 10° NNW
Cosmos 2344 3.6 22:05:03 11° SSW 22:12:06 60° ESE 22:20:01 10° NE
Cosmos 158 Rocket 3.8 22:09:32 18° SSW 22:13:13 89° WNW 22:18:10 10° NNE
Cosmos 1151 Rocket 3.6 22:09:25 10° N 22:13:37 46° ENE 22:15:44 25° SE
SL-8 Rocket 4.3 22:11:02 23° SSE 22:14:42 51° E 22:20:37 10° NNE
Cosmos 2112 Rocket 4.0 22:12:33 17° SSW 22:16:43 90° NW 22:22:08 10° NNE
Elektron 1 4.4 22:15:08 15° SW 22:17:48 84° SE 22:23:44 10° NE
CZ-4C R/B 3.8 22:12:02 10° NW 22:18:27 45° NNE 22:25:59 10° ESE
Cosmos 2333 Rocket 3.8 22:15:14 10° WSW 22:20:26 35° NW 22:25:41 10° NNE
Cosmos 1420 Rocket 4.2 22:15:25 10° NNW 22:20:42 69° ENE 22:23:56 24° SE
ALOS 2 2.8 22:18:57 27° SE 22:21:12 63° ENE 22:25:33 10° N
Iridium 2 4.2 22:20:16 10° NNW 22:24:00 52° W 22:25:48 27° SSW
EO 1 Del DPAF 3.2 22:24:23 10° NNE 22:28:10 82° WNW 22:29:55 30° SSW
Cosmos 1892 4.2 22:26:26 14° SW 22:29:13 32° WNW 22:32:40 10° N
Cosmos 2056 Rocket 3.8 22:24:09 10° NNW 22:29:30 61° WSW 22:32:26 27° S
NOSS 0 Rocket 4.4 22:24:08 10° SW 22:30:13 61° NW 22:36:21 10° NNE
GP-B 3.2 22:26:38 10° N 22:31:04 64° E 22:33:05 31° SSE
Cosmos 1633 4.1 22:32:54 20° ESE 22:33:47 22° E 22:36:40 10° NE
Nimbus 7 Rocket 4.5 22:28:35 10° NNE 22:34:31 67° ESE 22:37:59 26° S
Cosmos 1606 2.7 22:32:01 10° N 22:35:56 88° W 22:37:25 37° S
RESURS DK-1 4.3 22:33:51 10° NNW 22:37:21 26° NE 22:40:51 10° ESE
Cosmos 2278 Rocket 3.6 22:32:59 10° NW 22:37:34 26° WSW 22:40:40 16° SW
ATLAS 5 CENTAUR R/B 4.4 22:35:08 10° WNW 22:38:46 23° NNW 22:42:48 10° NE
Cosmos 1408 3.8 22:37:57 19° SW 22:39:59 35° WNW 22:43:19 10° N
USA 267 3.6 22:36:39 24° SSE 22:40:17 46° SW 22:46:34 10° WNW
Cosmos 2297 3.7 22:34:57 10° NNW 22:40:42 74° WSW 22:43:51 27° SSE
Cosmos 1943 Rocket 2.5 22:35:52 10° NNW 22:41:31 62° ENE 22:45:29 20° SE
MOS 1-B Rocket 4.5 22:33:43 10° NNE 22:41:34 82° WNW 22:46:38 19° SSW
Cosmos 44 3.0 22:40:51 31° SSW 22:42:47 63° SE 22:47:12 10° NE
Gbstr 26 Del rocket 3.8 22:44:20 28° SE 22:44:20 28° SE 22:47:22 10° E
Cosmos 1680 Rocket 4.3 22:39:45 10° SW 22:44:54 50° WNW 22:50:07 10° NNE
Cosmos 371 Rocket 3.2 22:44:08 10° NNW 22:49:01 81° WSW 22:51:21 31° SSE
SL-16 R/B 2.2 22:46:35 25° SSW 22:49:57 72° ESE 22:55:38 10° NNE
IRIDIUM 104 4.3 22:49:58 29° S 22:52:43 87° E 22:57:58 10° N
APEX 2.2 22:50:52 10° NNW 22:53:37 87° ENE 22:53:52 71° SE
CREW DRAGON DEMO-1 DEB 2.6 22:53:16 33° WSW 22:54:29 76° SSE 22:57:33 10° ENE
Cosmos 405 3.7 22:51:32 10° N 22:54:58 45° ENE 22:56:11 31° SE
Lacrosse 5 rocket 1.9 22:51:11 10° NW 22:55:11 54° NNE 22:58:56 10° ESE
Cosmos 1452 Rocket 3.5 22:51:12 10° NNW 22:56:31 89° ENE 22:59:20 28° SSE
Cosmos 1515 Rocket 3.6 22:53:53 10° N 22:58:16 75° E 23:00:08 33° SSE
IRIDIUM 114 4.3 22:59:06 29° S 23:01:52 80° W 23:07:08 10° N
Cosmos 1766 Rocket 3.8 23:01:32 28° SSW 23:03:43 62° WNW 23:08:07 10° N
Cosmos 1328 Rocket 3.8 23:00:07 10° NNW 23:04:22 59° W 23:06:06 33° SSW
Okean 3 Rocket 4.3 23:07:35 23° SW 23:10:01 47° WNW 23:14:19 10° N
IRIDIUM 103 4.5 23:08:14 27° SSW 23:11:03 67° W 23:16:17 10° N
Meteor 2-3 Rocket 3.7 23:12:54 28° SSW 23:16:03 88° W 23:21:49 10° NNE
Cosmos 1340 2.8 23:15:33 36° SSW 23:16:55 66° WNW 23:20:41 10° N
Cosmos 1825 4.1 23:14:45 14° WSW 23:17:03 23° WNW 23:20:08 10° NNW
Cosmos 2228 Rocket 3.3 23:14:41 10° N 23:19:17 69° ENE 23:21:26 31° SSE
Resurs 1-4 Rocket 4.4 23:18:22 10° ENE 23:20:08 12° E 23:21:54 10° ESE
Aureole 2 Rocket 4.3 23:19:18 10° WNW 23:20:49 15° W 23:20:49 15° W
Cosmos 2218 Rocket 4.2 23:17:44 24° SSW 23:21:47 68° WNW 23:28:04 10° N
Cosmos 1603 4.3 23:22:36 27° SSE 23:25:08 42° ESE 23:30:29 10° NE
Meteor 2-6 Rocket 4.3 23:19:57 10° N 23:25:27 66° ENE 23:28:38 25° SSE
Cosmos 2366 rocket 4.2 23:21:57 23° SSW 23:26:00 66° WNW 23:32:20 10° N
Cosmos 2369 Rocket 2.1 23:24:17 10° NNW 23:29:55 86° WSW 23:33:18 25° SSE
CZ-4 R/B 4.2 23:25:45 10° NNE 23:30:21 51° E 23:32:25 30° SSE
Cosmos 1743 Rocket 3.5 23:29:40 36° S 23:31:25 84° E 23:35:47 10° NNE
Sich 1 4.3 23:29:53 22° SE 23:31:45 30° E 23:35:35 10° NNE
SL-4 R/B 2.9 23:33:31 16° WNW 23:33:31 16° WNW 23:34:20 10° NW
Cosmos 304 Rocket 3.8 23:28:04 10° NNW 23:32:53 67° WSW 23:35:00 32° S
Cosmos 44 Rocket 4.2 23:32:07 26° SE 23:33:24 30° ESE 23:37:32 10° NE
Cosmos 1821 Rocket 4.1 23:30:58 27° S 23:34:26 67° E 23:40:29 10° NNE
YAOGAN 11 4.2 23:33:15 34° S 23:34:59 62° WSW 23:39:24 10° NNW
Helios 1A 3.4 23:34:08 33° SSW 23:35:33 48° W 23:39:35 10° NNW
COSMOS 2455 3.1 23:32:50 10° NW 23:38:43 54° WSW 23:41:47 28° S
Cosmos 1656 Rocket 3.9 23:34:39 10° NNW 23:40:03 63° ENE 23:44:30 15° SE
ATLAS 2AS CENTAUR R/B 4.2 23:42:18 10° WNW 23:47:21 20° WSW 23:50:03 16° SW
USA 215 4.1 23:42:53 10° ENE 23:49:14 54° NNW 23:55:34 10° W
Cosmos 2237 Rocket 4.2 23:45:01 10° W 23:49:38 25° NW 23:54:18 10° NNE
Cosmos 1812 3.0 23:45:55 10° N 23:49:46 63° ENE 23:51:26 31° SSE
CRYOSAT 2 4.3 23:46:28 10° N 23:51:22 86° E 23:53:46 31° S
Cosmos 1782 3.5 23:48:07 10° NNW 23:51:50 39° W 23:53:04 30° SW
CZ-2D R/B 3.9 23:49:41 10° NE 23:53:42 21° E 23:57:20 11° SE
USA 32 4.3 23:51:42 26° SSE 23:54:35 61° E 23:59:48 10° NNE
